Location: Ottawa
(45.4170°N, 75.7000°W)
Time: 04:49:26
(UTC-04:00)

Daily predictions for brighter satellites

Satellite Brightness Start Highest point End
(mag) Time Altitude Azimuth Time Altitude Azimuth Time Altitude Azimuth
SeaSat 1 3.5 00:09:02 41° NNE 00:09:02 41° NNE 00:12:54 10° NNW
Lacrosse 5 3.2 00:06:50 10° NW 00:09:43 34° WNW 00:09:43 34° WNW
Cosmos 1459 Rocket 4.1 00:15:57 70° NNE 00:15:57 70° NNE 00:21:22 10° N
Cosmos 1943 Rocket 3.5 00:32:41 10° NW 00:36:08 31° WNW 00:36:08 31° WNW
BREEZE M DEB (TANK) 4.3 00:31:46 10° WNW 00:36:54 34° WNW 00:36:54 34° WNW
H-2A R/B 3.9 00:45:23 31° NNW 00:45:23 31° NNW 00:47:48 10° NNW
Cosmos 1656 Rocket 4.4 00:40:19 10° NNW 00:44:31 50° NW 00:44:31 50° NW
Cosmos 2061 Rocket 4.2 00:50:16 65° NW 00:50:16 65° NW 00:56:17 10° N
Cosmos 2100 Rocket 4.5 00:50:49 52° WNW 00:50:49 52° WNW 00:56:52 10° N
Cosmos 1802 Rocket 4.2 00:51:22 62° NW 00:51:22 62° NW 00:56:55 10° N
USA 267 4.2 00:48:19 10° NE 00:54:26 44° NNW 01:00:33 10° W
COSMOS 2406 4.3 01:08:41 37° ENE 01:08:41 37° ENE 01:12:24 10° NE
Cosmos 2233 Rocket 4.3 01:08:31 60° NE 01:08:31 60° NE 01:13:43 10° NNE
Cosmos 2369 Rocket 4.4 01:05:32 10° WNW 01:07:06 14° WNW 01:07:06 14° WNW
ADEOS Rocket 3.2 01:15:16 10° NNE 01:21:59 75° NW 01:21:59 75° NW
Cosmos 2082 Rocket 4.4 01:24:50 14° E 01:24:50 14° E 01:26:50 10° ENE
Cosmos 1725 Rocket 4.5 01:30:33 52° WNW 01:30:33 52° WNW 01:36:02 10° N
Mayak 1.1 01:31:44 10° NNW 01:33:35 19° NW 01:33:35 19° NW
Resurs 1-4 Rocket 4.4 01:39:52 10° ENE 01:42:06 13° E 01:42:27 12° E
Cosmos 1833 Rocket 4.0 01:59:55 30° E 01:59:55 30° E 02:04:10 10° NE
Cosmos 2369 4.1 01:53:51 10° NNW 01:59:23 58° ENE 01:59:23 58° ENE
Lacrosse 4 Rocket 3.1 02:01:31 10° NNW 02:05:06 34° NE 02:05:06 34° NE
CZ-4B R/B 4.3 02:13:55 17° N 02:13:55 17° N 02:14:48 10° N
Meteor 2-9 Rocket 4.4 02:10:35 10° N 02:15:16 65° N 02:15:16 65° N
Gbstr 26 Del rocket 4.3 02:16:39 72° SW 02:17:36 88° SSE 02:24:49 10° ENE
Cosmos 1607 4.2 02:20:37 57° ESE 02:20:37 57° ESE 02:26:54 10° NE
Cosmos 2034 Rocket 3.9 02:25:57 84° SE 02:26:08 86° E 02:32:24 10° N
ARIANE 5 R/B 4.3 02:28:06 10° NE 02:32:07 22° E 02:33:21 20° ESE
Cosmos 1867 3.6 02:27:55 10° NNW 02:33:14 75° NNE 02:33:14 75° NNE
Lacrosse 5 rocket 3.1 02:35:46 28° ENE 02:35:46 28° ENE 02:37:57 10° ENE
Cosmos 1092 Rocket 4.3 02:29:55 10° N 02:36:07 63° ENE 02:37:32 50° SE
Cosmos 332 Rocket 4.2 02:37:47 58° NE 02:37:47 58° NE 02:41:45 10° NNE
Cosmos 371 Rocket 3.7 02:38:31 59° ENE 02:38:31 59° ENE 02:42:37 10° NNE
MOS 1 Rocket 4.2 02:33:43 10° N 02:37:14 43° NNW 02:37:14 43° NNW
Meteor 1-23 Rocket 4.3 02:38:30 69° ESE 02:38:44 70° E 02:44:25 10° NNE
Meteor 2-4 Rocket 3.7 02:39:37 68° NW 02:39:37 68° NW 02:44:32 10° N
Exosat Rocket 4.2 02:34:20 10° NNW 02:40:13 85° ENE 02:42:45 45° SSE
CZ-2D R/B 2.8 02:41:29 10° NNE 02:46:40 45° E 02:47:19 43° ESE
Cosmos 967 Rocket 4.4 02:40:16 10° NW 02:46:34 70° WSW 02:46:34 70° WSW
COSMOS 2406 4.4 02:50:43 29° WNW 02:51:28 30° NW 02:56:27 10° N
Cosmos 2278 3.9 02:46:07 10° NNW 02:50:51 57° WNW 02:50:51 57° WNW
SL-16 R/B 2.5 02:51:48 50° SSE 02:53:35 80° ENE 02:59:53 10° NNW
Cosmos 1464 Rocket 4.4 02:53:39 45° W 02:53:54 45° WNW 02:59:56 10° N
Cosmos 1980 Rocket 2.6 02:49:36 10° NNW 02:55:10 59° ENE 02:58:12 27° SE
Cosmos 1697 Rocket 2.5 02:51:56 10° NNW 02:57:38 81° WSW 02:57:47 81° SW
IRS-1D 4.2 02:53:38 10° NNE 02:58:39 48° E 02:59:31 43° SE
IRS-1C 4.3 02:57:38 10° NNE 03:02:57 63° ESE 03:03:43 56° SE
Cosmos 2082 Rocket 2.0 03:06:40 74° SW 03:07:12 86° WNW 03:12:54 10° NNE
ADEOS II 4.5 03:03:56 10° NE 03:07:13 17° E 03:10:29 10° SE
SL-16 R/B 4.1 03:02:52 10° N 03:07:48 29° NE 03:12:43 10° ESE
Okean 1-7 Rocket 4.4 03:09:03 42° ESE 03:09:36 44° E 03:13:54 10° NNE
H-2A R/B 2.7 03:07:08 10° NNE 03:10:57 70° N 03:10:57 70° N
Cosmos 304 Rocket 4.2 03:11:51 51° SE 03:12:17 53° ESE 03:17:00 10° NNE
Nadezhda 4 Rocket 4.2 03:07:55 10° NNW 03:13:46 48° W 03:13:59 48° W
ATLAS 3B R/B 4.2 03:16:15 18° SSE 03:20:00 28° ESE 03:25:41 10° ENE
Cosmos 1544 3.7 03:18:21 10° N 03:21:44 54° ENE 03:21:44 54° ENE
Cosmos 2228 4.5 03:18:13 10° N 03:22:09 34° ENE 03:24:39 19° SE
MOZ.5/SAFIR/RUBIN 5/SL-8 3.8 03:21:27 61° SSE 03:22:15 82° ENE 03:27:02 10° NNW
Resurs 1-4 Rocket 2.0 03:17:21 10° NNE 03:22:38 88° WNW 03:23:33 63° SSW
Cosmos 2322 Rocket 3.7 03:18:19 10° NNW 03:23:30 35° NE 03:28:37 10° ESE
Cosmos 1606 Rocket 3.9 03:20:35 10° N 03:24:52 59° ENE 03:25:51 46° SE
Cosmos 1634 Rocket 3.9 03:24:53 50° SSW 03:26:37 81° W 03:32:55 10° N
Cosmos 1340 Rocket 4.0 03:28:57 32° NW 03:28:57 32° NW 03:31:45 10° N
ERS-1 4.4 03:26:39 10° NNE 03:31:39 81° ESE 03:32:47 54° S
IRS-P3 4.3 03:27:35 10° N 03:32:48 56° WNW 03:33:41 50° WSW
NPP 3.9 03:28:28 10° N 03:33:41 51° WNW 03:34:34 46° W
SJ 16-02 4.3 03:33:20 10° NNE 03:36:21 18° NE 03:39:20 10° E
Cosmos 1763 Rocket 4.4 03:34:39 27° SSE 03:37:01 42° ESE 03:42:01 10° NE
SL-08 R/B 3.9 03:37:48 40° W 03:37:48 40° W 03:41:53 10° NNW
CBERS-1 4.3 03:34:49 10° N 03:39:43 48° WNW 03:40:29 44° W
Cosmos 1892 Rocket 4.1 03:38:19 37° SSE 03:39:45 54° E 03:44:02 10° NNE
Cosmos 2279 Rocket 4.0 03:36:56 33° S 03:39:57 79° E 03:46:15 10° N
ATLAS CENTAUR R/B 4.5 03:39:08 10° N 03:42:04 18° NE 03:45:07 10° E
Cosmos 1025 Rocket 3.3 03:42:56 48° WNW 03:42:56 48° WNW 03:47:00 10° N
Cosmos 1833 Rocket 3.3 03:41:36 37° W 03:43:01 44° WNW 03:48:25 10° NNE
Lacrosse 4 Rocket 3.6 03:40:22 10° NW 03:41:22 15° WNW 03:41:22 15° WNW
COSMOS 2487 2.7 03:45:12 59° NNW 03:45:12 59° NNW 03:48:18 10° NNE
Cosmos 2026 Rocket 4.0 03:40:36 10° NNW 03:46:54 62° W 03:49:30 36° SSW
Cosmos 2208 Rocket 3.9 03:46:29 48° SW 03:47:58 77° WNW 03:53:15 10° NNE
Cosmos 1898 Rocket 3.4 03:44:24 10° NNW 03:49:36 74° WSW 03:52:28 27° S
Cosmos 44 3.6 03:50:35 10° NNW 03:55:48 76° NE 04:01:11 10° SE
Cosmos 1805 3.6 03:52:59 10° N 03:56:52 62° E 03:59:11 22° SSE
Cosmos 1953 4.5 03:53:44 10° NNE 03:57:14 27° ENE 04:00:42 10° SE
Cosmos 1937 Rocket 3.3 03:54:43 10° NNW 03:59:56 82° WSW 04:05:05 10° SSE
Iridium 4 Rocket 4.1 04:00:48 30° WNW 04:00:48 30° WNW 04:04:45 10° NNW
BREEZE-M R/B 3.2 04:00:43 40° SSE 04:01:14 43° SE 04:06:13 10° ENE
Cosmos 1570 Rocket 4.3 04:00:10 38° WSW 04:01:49 53° WNW 04:07:02 10° NNE
Cosmos 1766 3.1 04:00:09 10° NNW 04:04:01 72° W 04:04:58 48° SSW
Cosmos 858 Rocket 4.4 03:59:24 10° NNW 04:04:34 66° WSW 04:08:44 16° S
Cosmos 724 4.2 04:05:14 32° SSW 04:08:04 83° ESE 04:13:54 10° NE
Timation 2 Rocket 4.0 04:07:41 24° SSW 04:11:25 70° ESE 04:17:21 10° NNE
Cosmos 1356 Rocket 3.8 04:10:57 39° W 04:11:32 42° WNW 04:15:26 10° N
ARIANE 5 R/B 2.8 04:06:27 10° N 04:11:32 53° WNW 04:13:42 32° SW
Spot 4 Rocket 4.4 04:07:20 10° N 04:12:19 50° WNW 04:14:23 32° SW
Lacrosse 5 rocket 2.6 04:11:25 23° WNW 04:13:14 33° NNW 04:16:57 10° NE
Cosmos 468 Rocket 4.1 04:12:08 33° SW 04:14:25 61° WNW 04:19:43 10° NNE
Cosmos 990 Rocket 3.9 04:10:03 10° NNW 04:15:08 61° WSW 04:20:12 10° S
Okean O Rocket 4.4 04:16:00 10° ENE 04:18:05 13° E 04:20:11 10° ESE
USA 267 4.4 04:12:32 10° E 04:18:36 42° NNE 04:24:41 10° NW
Cosmos 2266 Rocket 3.9 04:16:07 10° N 04:22:13 87° E 04:28:23 10° S
USA 238 DEB 3.8 04:17:41 22° SSW 04:22:20 73° ESE 04:29:17 10° NE
USA 238 3.8 04:17:46 22° SSW 04:22:26 72° ESE 04:29:23 10° NE
Cosmos 1655 Rocket 4.3 04:17:14 10° NNW 04:23:20 50° W 04:27:55 18° SSW
Cosmos 1758 3.6 04:19:33 10° N 04:23:32 68° E 04:27:29 10° SSE
Cosmos 1814 Rocket 3.9 04:20:49 26° SSW 04:23:47 81° WNW 04:29:00 10° NNE
Cosmos 44 Rocket 3.4 04:19:25 10° NW 04:24:35 89° NE 04:29:47 10° SE
Helios 1A Rocket 3.4 04:21:50 10° N 04:25:49 45° WNW 04:27:22 30° WSW
CZ-2D R/B 3.3 04:22:00 10° N 04:26:30 28° WNW 04:28:39 21° W
CZ-2D R/B 3.6 04:23:02 10° N 04:27:02 56° WNW 04:28:56 29° SW
Cosmos 2150 Rocket 4.1 04:23:14 10° NNW 04:28:39 65° WSW 04:34:02 10° S
Cosmos 1733 3.4 04:29:37 10° N 04:33:30 73° E 04:37:22 10° SSE
Cosmos 1726 Rocket 4.4 04:30:33 10° NNW 04:34:18 30° W 04:35:31 26° WSW
Cosmos 2298 Rocket 4.2 04:30:40 10° NNW 04:35:49 50° WSW 04:40:54 10° S
Cosmos 2360 Rocket 3.0 04:31:07 10° NNW 04:36:39 55° ENE 04:42:10 10° SE
Meteor 1-21 4.2 04:33:26 18° SSW 04:37:41 65° WNW 04:43:17 10° N
SL-16 R/B 3.9 04:36:53 18° W 04:37:53 18° W 04:42:03 10° NW
Cosmos 1980 Rocket 3.3 04:34:29 10° NW 04:38:42 22° W 04:39:51 21° WSW
PSLV R/B 4.3 04:37:36 10° NNE 04:41:43 50° E 04:45:48 10° S
ADEOS II 2.1 04:42:13 10° N 04:47:27 70° WNW 04:52:21 12° SSW
Meteor 2-11 Rocket 4.4 04:41:58 10° SSW 04:48:06 78° W 04:54:18 10° N
ADEOS 4.1 04:44:41 10° N 04:49:34 42° WNW 04:53:16 17° SW
Cosmos 1812 Rocket 3.6 04:46:58 10° N 04:51:28 86° E 04:55:55 10° S
UNKNOWN OBJECT B 3.9 04:48:39 10° N 04:51:59 28° WNW 04:53:49 19° WSW
Cosmos 2082 Rocket 4.0 04:48:31 10° W 04:52:10 18° NW 04:55:57 10° N
SL-16 R/B 2.3 04:46:41 10° NW 04:52:10 51° WSW 04:57:37 10° S
Cosmos 841 Rocket 3.6 04:48:22 16° SW 04:52:25 63° WNW 04:57:36 10° NNE
CZ-4B R/B 3.8 04:49:39 10° NNE 04:53:48 49° E 04:57:42 10° S
Cosmos 2058 Rocket 4.1 04:51:54 10° NNW 04:55:35 26° W 04:58:12 16° SW
Cosmos 1602 Rocket 3.5 04:53:56 10° SSW 04:58:15 70° W 05:02:34 10° N
Cosmos 1470 2.7 04:55:14 10° NNW 04:59:14 74° W 05:03:11 10° S
Cosmos 2228 4.3 04:56:14 10° NW 04:59:29 21° W 05:01:28 16° WSW
NOSS 3-2 (C) 4.0 04:53:45 10° SSW 04:59:31 56° ESE 05:05:54 10° NE
Resurs 1-4 Rocket 4.0 04:58:59 10° NNW 05:01:42 14° WNW 05:04:26 10° W
Cosmos 2219 Rocket 4.4 04:58:42 10° N 05:03:36 30° NE 05:08:27 10° ESE
Cosmos 2322 Rocket 2.6 05:02:22 10° NW 05:07:36 40° WSW 05:12:46 10° S
Cosmos 540 Rocket 3.4 05:03:12 10° SSW 05:08:20 78° WNW 05:13:31 10° NNE
ATLAS 3B R/B 2.8 05:03:31 12° SW 05:10:12 71° NW 05:17:06 10° NE
Cosmos 1626 Rocket 3.9 05:06:37 10° SSW 05:10:46 45° WNW 05:14:57 10° N
USA 161 2.7 05:10:11 10° SSE 05:13:07 48° ENE 05:15:57 10° N
SJ 16-02 1.4 05:10:59 10° NNW 05:15:18 55° WSW 05:19:36 10° S
NOSS 3-2 (A) 3.5 05:10:21 10° SW 05:16:18 87° NW 05:22:59 10° NE
Cosmos 1833 4.4 05:12:07 10° SSW 05:17:55 83° ESE 05:23:45 10° NNE
Cosmos 292 Rocket 4.2 05:13:38 10° SW 05:18:13 45° WNW 05:22:51 10° N
Cosmos 1707 2.7 05:14:45 10° SSW 05:18:37 71° W 05:22:31 10° N
Cosmos 1378 3.4 05:15:22 10° SSW 05:19:01 49° WNW 05:22:41 10° N
MOS 1-B 4.4 05:13:15 10° NNE 05:19:06 87° WNW 05:24:55 10° SSW
ATLAS CENTAUR R/B 1.6 05:17:11 10° NW 05:21:35 88° WSW 05:26:16 10° SE
USA 215 3.3 05:18:59 10° NE 05:25:33 90° NW 05:32:07 10° SW
CENTAUR R/B 3.7 05:25:17 10° S 05:30:50 42° ESE 05:37:09 10° NE
Meteor 1-31 Rocket 3.2 05:28:39 10° NNE 05:32:32 65° E 05:36:21 10° S
CZ-4B R/B 3.8 05:26:58 10° NNE 05:32:32 64° ESE 05:37:57 10° S
Cosmos 1953 3.4 05:30:11 10° NNW 05:33:34 25° W 05:36:55 10° SW
PSLV R/B 3.8 05:30:33 10° N 05:34:23 60° WNW 05:38:05 10° SSW
